Flag for Canada Weather past 2 weeks in Kitchener, Ontario, Canada

Now
64 °F

Sunny.


Feels Like: 64 °F
Forecast: 40 / 67 °F
Wind: 12 mph from West

Location: Waterloo Well

Current Time: Sep 23, 2014 at 12:33:26 PM

Latest Report: Sep 23, 2014 at 12:00 PM


Visibility: 9 mi

Pressure: 30.31 "Hg

Humidity: 60%

Dew point: 50 °F

Location of KitchenerLocation

Historic Weather in Kitchener — Graph

°F

Kitchener temperature yesterday

Maximum temperature yesterday: 54 °F (at 3:00 PM)
Minimum temperature yesterday: 43 °F (at 10:00 PM)
Average temperature yesterday: 48 °F

Past Weeks' High & Low Weather Summary

 TemperatureHumidityPressure
High75 °F (Sep 20, 3:00 PM)100% (Sep 9, 1:00 AM)30.37 "Hg (Sep 9, 1:00 AM)
Low36 °F (Sep 19, 2:00 AM)43% (Sep 17, 3:00 PM)29.54 "Hg (Sep 11, 3:00 AM)
Average54 °F83%30.06 "Hg
* Reported Sep 8 11:00 AM — Sep 23 11:00 AM, Kitchener, Weather by CustomWeather, © 2014

Note: Actual official high and low records may vary slightly from our data, if they occured in-between our weather recording intervals... More about our weather records

Advertising

Kitchener weather history for previous 24 hours

 ConditionsComfort  
Time TempWeatherWind HumidityBarometerVisibility
11:00 AM
Sep 23
63 °FSunny.15 mph64%30.31 "Hg9 mi
10:00 AM59 °FSunny.10 mph72%30.31 "Hg9 mi
9:00 AM55 °FSunny.5 mph82%30.31 "Hg9 mi
8:00 AM45 °FClear.2 mph100%30.30 "Hg9 mi
7:00 AM43 °FClear.3 mph93%30.29 "Hg9 mi
6:47 AM39 °FClear.2 mph100%30.29 "Hg7 mi
6:00 AM41 °FClear.No wind93%30.28 "Hg9 mi
5:00 AM46 °FClear.5 mph82%30.26 "Hg9 mi
4:00 AM46 °FClear.7 mph82%30.26 "Hg9 mi
3:00 AM46 °FClear.5 mph82%30.26 "Hg9 mi
2:00 AM45 °FClear.3 mph87%30.25 "Hg9 mi
1:00 AM41 °FClear.No wind93%30.24 "Hg9 mi
12:00 AM45 °FClear.3 mph87%30.23 "Hg9 mi
11:00 PM
Sep 22
43 °FClear.6 mph87%30.23 "Hg9 mi
10:00 PM43 °FClear.6 mph87%30.22 "Hg9 mi
9:00 PM45 °FClear.6 mph81%30.21 "Hg9 mi
8:00 PM46 °FSunny.7 mph76%30.19 "Hg9 mi
7:00 PM50 °FSunny.8 mph71%30.17 "Hg9 mi
6:00 PM54 °FPassing clouds.10 mph63%30.16 "Hg9 mi
5:00 PM54 °FPassing clouds.15 mph63%30.14 "Hg9 mi
4:00 PM52 °FOvercast.14 mph67%30.14 "Hg9 mi
3:00 PM54 °FOvercast.15 mph63%30.13 "Hg9 mi
2:00 PM52 °FOvercast.16 mph67%30.12 "Hg9 mi
1:00 PM52 °FOvercast.14 mph62%30.12 "Hg9 mi
12:00 PM50 °FOvercast.15 mph71%30.11 "Hg9 mi
Weather by CustomWeather, © 2014

See weather overviewHow to use our weather pages